Location: Gallinara
(44.0333°N, 8.2333°E)
Time: 01:59:35
(UTC+00:00)

Cosmos 372 Rocket - Pass Details

Date: 25 September 2020
Orbit: 739 x 767 km, 74.1° (Epoch: 29 October)

Event Time Altitude Azimuth Distance (km) Brightness Sun altitude
Rises 04:21:13 0° 332° (NNW) 3,204 7.0 -11.0°
Reaches altitude 10° 04:23:43 10° 325° (NW) 2,271 6.2 -10.6°
Maximum altitude 04:28:28 40° 257° (WSW) 1,093 4.3 -9.7°
Drops below altitude 10° 04:33:11 10° 189° (S) 2,243 6.3 -8.9°
Sets 04:35:38 0° 182° (S) 3,160 7.1 -8.4°
